Temp
26 26 24 25 24 23 23 21 22 21 20 20 20 21 20 18 16 14 14 15 14 14 14 13 13 13 12 12 13 13 13 13 13 12 12 12 10 10 10 10 10 10 11
26 25 25 23 21 23 24 23 23 22 21 20 20 21 18 17 14 14 14 14 14 13 12 13 13 12 11 12 13 12 12 12 12 11 11 9 9 9 10 10 10 10 10
22 23 23 22 21 23 23 23 22 21 21 20 20 20 18 15 14 13 15 15 13 13 13 13 12 11 11 11 11 11 11 11 11 10 9 9 9 10 11 11 11 11 11
22 23 22 22 21 20 20 22 22 21 21 19 20 19 16 14 14 14 15 14 13 13 13 13 11 11 11 10 10 10 10 10 10 9 8 9 8 9 9 10 11 11 11
24 24 23 20 19 19 18 18 19 18 17 18 18 17 14 14 14 14 14 13 13 14 13 12 12 11 11 11 11 11 11 9 9 8 8 8 8 9 9 10 10 11 10
25 23 20 19 19 19 19 18 18 17 17 18 17 15 14 15 15 15 15 13 12 12 11 12 12 11 11 10 11 11 11 9 9 8 8 7 8 8 9 9 10 10 10
24 20 19 20 19 19 20 19 17 17 17 17 16 15 14 14 14 15 14 14 12 12 11 13 11 11 10 10 11 11 9 10 9 8 8 8 8 9 10 9 10 10 10
20 20 22 21 21 20 19 18 17 18 17 17 16 15 14 14 15 15 14 14 13 11 13 11 10 10 9 10 11 11 9 10 10 9 8 8 9 10 10 11 10 10 10
23 24 23 22 21 20 18 17 17 17 17 16 14 14 13 13 15 14 14 13 12 12 11 10 9 9 10 10 10 10 10 10 11 10 9 9 10 10 10 10 10 10 10
24 24 23 23 21 20 18 18 18 17 16 15 14 14 13 13 14 14 14 13 12 12 11 11 10 10 10 10 10 10 10 11 8 10 9 9 9 10 10 10 10 10 10
26 25 24 24 23 21 19 19 17 16 14 14 14 13 13 12 14 14 14 13 12 12 12 12 11 10 10 9 9 9 10 11 8 10 10 9 9 9 9 10 10 10 11
23 22 22 20 20 17 17 18 16 14 14 14 13 13 13 14 14 13 13 12 12 12 10 10 10 10 10 9 9 9 10 10 9 9 10 8 8 8 8 8 9 9 10
22 21 19 18 17 16 17 17 15 14 15 15 14 14 13 12 14 13 12 12 12 12 10 10 10 10 10 8 9 10 10 8 8 9 9 7 7 8 8 8 9 9 9
20 18 16 16 16 16 16 15 15 15 15 15 14 14 13 13 11 10 11 11 11 10 9 9 8 9 9 9 8 7 8 7 8 8 8 7 7 8 9 8 8 9 8
18 17 16 16 16 15 15 14 14 14 15 14 14 14 13 13 11 11 11 10 10 10 9 9 9 9 8 8 7 7 7 7 7 7 8 7 7 7 8 8 8 8 9
17 16 15 14 15 14 15 15 14 14 14 14 13 13 13 13 11 11 11 11 10 10 9 9 8 8 7 7 6 7 6 7 6 7 7 7 7 7 8 7 9 8 8
15 16 17 14 13 14 14 14 13 13 13 13 13 13 12 11 11 11 11 10 10 9 9 8 7 7 6 6 6 6 6 6 6 6 7 7 7 6 6 7 7 9 9
17 15 14 13 13 13 13 13 12 12 12 12 13 12 11 11 11 11 10 8 9 8 8 7 6 6 6 5 5 5 5 5 5 5 6 6 7 8 7 6 7 6 7
14 14 14 14 14 13 12 12 12 12 11 10 11 10 10 10 10 9 9 8 9 8 7 6 5 5 5 5 4 4 4 4 4 5 5 5 6 7 7 8 7 6 6
13 13 13 13 12 13 12 12 12 12 12 11 10 9 9 9 9 9 8 8 7 7 7 6 5 4 4 5 4 4 4 4 4 4 4 4 4 5 6 7 7 7 7
14 13 13 14 14 14 14 13 12 12 12 11 11 10 9 9 9 8 8 7 7 6 6 5 5 4 4 3 4 4 4 4 3 3 4 4 4 5 4 5 6 6 6
14 14 13 14 14 14 13 13 13 12 12 12 11 9 9 9 9 8 8 7 6 5 5 4 4 4 3 3 3 4 3 3 3 3 3 4 4 5 5 5 5 5 4
13 14 13 13 14 13 12 12 12 12 11 11 11 9 8 8 8 8 7 7 6 5 4 4 4 4 3 3 3 4 3 4 4 3 2 3 4 4 5 5 5 5 5
13 13 14 13 13 13 12 12 12 12 12 11 10 9 9 9 8 8 8 6 5 5 4 4 4 4 3 3 3 4 5 5 5 4 2 2 3 3 4 4 5 4 5
13 13 13 13 13 12 11 11 11 10 10 9 9 9 9 8 8 8 7 6 5 5 4 4 3 3 4 5 5 5 5 5 5 5 2 2 2 3 3 4 4 4 3
12 12 12 13 13 12 11 11 11 10 9 9 9 9 9 9 8 7 6 6 5 5 4 3 4 4 3 4 4 4 4 5 5 5 4 2 2 2 3 3 3 4 3
Height
1517 1522 1525 1528 1531 1534 1536 1538 1539 1542 1546 1546 1548 1548 1546 1545 1547 1550 1550 1548 1546 1545 1542 1539 1536 1533 1529 1526 1522 1518 1513 1507 1494 1482 1480 1472 1461 1451 1444 1440 1438 1436 1435
1511 1515 1518 1521 1523 1525 1527 1530 1532 1535 1537 1541 1544 1543 1541 1542 1544 1545 1545 1544 1543 1541 1540 1537 1533 1529 1524 1521 1518 1514 1507 1501 1490 1470 1464 1455 1449 1441 1435 1429 1426 1425 1423
1504 1507 1511 1513 1515 1517 1520 1524 1527 1530 1533 1536 1539 1538 1537 1539 1541 1542 1541 1541 1540 1538 1537 1533 1529 1525 1520 1518 1513 1507 1502 1494 1485 1471 1451 1445 1437 1432 1426 1421 1417 1413 1412
1498 1501 1504 1506 1509 1511 1515 1517 1521 1524 1526 1530 1533 1534 1534 1536 1538 1538 1537 1537 1536 1535 1533 1529 1526 1522 1518 1512 1507 1501 1495 1486 1476 1463 1448 1436 1428 1421 1419 1413 1407 1405 1403
1492 1495 1499 1503 1506 1507 1510 1513 1516 1519 1520 1526 1528 1528 1531 1533 1534 1534 1534 1535 1534 1532 1530 1526 1523 1517 1512 1507 1502 1495 1488 1479 1467 1454 1441 1430 1420 1414 1411 1406 1401 1399 1397
1488 1492 1495 1498 1500 1503 1506 1509 1512 1515 1517 1521 1523 1524 1528 1530 1530 1530 1530 1530 1529 1527 1525 1520 1517 1513 1510 1504 1498 1492 1485 1474 1463 1448 1436 1424 1412 1404 1398 1395 1393 1392 1391
1483 1487 1491 1493 1496 1499 1501 1504 1508 1510 1513 1516 1519 1521 1524 1526 1526 1526 1526 1526 1526 1525 1521 1517 1512 1510 1504 1499 1493 1487 1480 1474 1462 1447 1432 1419 1405 1394 1385 1382 1385 1386 1387
1481 1483 1487 1490 1493 1495 1497 1500 1504 1507 1509 1513 1515 1518 1521 1522 1522 1523 1523 1522 1521 1519 1515 1511 1508 1504 1501 1494 1488 1483 1477 1468 1458 1444 1431 1415 1401 1389 1382 1379 1382 1382 1384
1476 1480 1483 1487 1490 1494 1497 1502 1506 1508 1508 1510 1513 1515 1516 1517 1517 1520 1519 1517 1519 1517 1512 1506 1503 1500 1496 1491 1486 1480 1473 1466 1454 1444 1428 1413 1398 1389 1385 1383 1383 1383 1382
1473 1478 1482 1485 1487 1488 1492 1497 1501 1507 1506 1508 1511 1514 1514 1515 1515 1517 1516 1514 1515 1515 1510 1506 1499 1496 1493 1489 1484 1478 1471 1463 1452 1442 1426 1411 1400 1391 1388 1387 1386 1385 1385
1473 1477 1479 1479 1480 1483 1480 1485 1497 1504 1506 1507 1510 1512 1513 1513 1512 1513 1511 1511 1511 1510 1508 1504 1500 1493 1490 1486 1482 1477 1470 1462 1456 1446 1432 1418 1407 1399 1392 1389 1388 1387 1385
1470 1473 1477 1480 1474 1482 1484 1477 1492 1500 1505 1505 1507 1511 1511 1510 1509 1509 1509 1508 1508 1505 1503 1500 1495 1490 1486 1483 1480 1475 1469 1463 1457 1448 1439 1427 1415 1407 1401 1395 1392 1389 1387
1471 1474 1474 1477 1476 1484 1480 1483 1488 1495 1502 1504 1505 1507 1509 1507 1505 1504 1504 1505 1504 1502 1499 1495 1491 1487 1483 1481 1477 1473 1468 1463 1457 1452 1443 1437 1429 1422 1412 1403 1397 1393 1390
1469 1474 1479 1477 1480 1478 1474 1484 1485 1490 1495 1499 1500 1502 1505 1506 1503 1502 1502 1503 1501 1501 1497 1495 1490 1486 1481 1479 1476 1473 1467 1463 1459 1455 1451 1444 1439 1429 1422 1415 1409 1398 1394
1470 1472 1475 1473 1482 1484 1481 1482 1485 1485 1492 1495 1497 1499 1501 1504 1501 1499 1501 1502 1501 1498 1496 1494 1491 1487 1483 1479 1477 1473 1469 1464 1461 1458 1453 1448 1443 1437 1431 1427 1423 1416 1408
1468 1471 1474 1481 1470 1475 1481 1480 1482 1483 1488 1490 1492 1495 1495 1500 1499 1497 1499 1500 1498 1497 1496 1494 1490 1486 1483 1480 1477 1474 1470 1464 1462 1460 1457 1453 1446 1441 1439 1433 1431 1426 1421
1467 1469 1459 1475 1476 1472 1476 1478 1479 1482 1485 1487 1489 1489 1492 1498 1496 1497 1498 1498 1497 1497 1497 1493 1490 1486 1484 1481 1479 1476 1471 1467 1464 1463 1460 1457 1452 1447 1442 1441 1437 1436 1433
1462 1467 1465 1467 1473 1475 1473 1476 1478 1482 1482 1483 1484 1487 1492 1494 1495 1496 1497 1497 1500 1497 1496 1493 1490 1488 1485 1482 1479 1476 1474 1470 1468 1464 1463 1460 1457 1455 1451 1446 1444 1440 1439
1467 1468 1467 1470 1472 1471 1471 1474 1477 1480 1479 1481 1483 1489 1491 1493 1495 1496 1496 1499 1498 1497 1496 1493 1490 1488 1485 1482 1479 1476 1475 1472 1470 1468 1465 1463 1461 1459 1456 1454 1450 1445 1444
1464 1464 1465 1467 1467 1470 1472 1473 1475 1476 1479 1484 1487 1487 1488 1492 1494 1495 1496 1497 1497 1496 1495 1494 1491 1488 1485 1482 1479 1477 1476 1474 1472 1469 1467 1465 1462 1461 1460 1457 1455 1452 1450
1461 1461 1463 1466 1469 1470 1470 1471 1473 1477 1480 1484 1486 1487 1489 1492 1494 1496 1497 1496 1496 1495 1494 1493 1492 1489 1487 1484 1481 1480 1479 1477 1474 1472 1471 1469 1466 1464 1462 1460 1459 1456 1454
1458 1460 1463 1465 1466 1468 1468 1470 1473 1475 1478 1481 1484 1485 1489 1491 1493 1495 1496 1496 1495 1494 1493 1492 1492 1489 1486 1484 1482 1480 1480 1478 1475 1474 1473 1472 1470 1468 1466 1464 1462 1460 1456
1459 1460 1461 1463 1465 1464 1467 1469 1470 1473 1476 1479 1482 1484 1487 1490 1494 1495 1496 1496 1495 1494 1493 1492 1491 1490 1487 1485 1483 1481 1479 1477 1475 1474 1474 1473 1472 1469 1469 1467 1465 1464 1462
1459 1460 1462 1463 1463 1464 1466 1468 1470 1472 1475 1478 1481 1482 1486 1487 1491 1495 1496 1495 1495 1494 1494 1492 1491 1489 1488 1487 1484 1482 1480 1478 1475 1474 1473 1474 1473 1471 1471 1469 1468 1465 1465
1459 1460 1461 1462 1463 1464 1465 1467 1469 1471 1474 1476 1479 1482 1485 1489 1493 1495 1494 1495 1496 1495 1494 1494 1492 1490 1488 1486 1484 1483 1481 1479 1476 1474 1475 1474 1473 1472 1471 1471 1469 1469 1467
1457 1459 1460 1461 1462 1463 1463 1465 1468 1471 1473 1476 1479 1482 1486 1491 1493 1494 1494 1495 1496 1496 1495 1494 1492 1491 1490 1487 1486 1484 1482 1480 1477 1475 1473 1476 1474 1472 1473 1472 1471 1471 1469
Wind_Speed
38 37 36 36 35 35 34 31 30 26 26 30 29 32 30 26 20 13 13 14 12 12 14 15 20 23 21 22 22 22 27 30 41 46 44 47 51 49 41 39 38 31 33
34 34 36 35 32 35 35 35 28 29 28 29 28 32 25 20 13 13 13 10 12 11 13 18 22 21 24 22 22 25 29 33 38 52 54 54 51 39 34 33 30 30 30
27 28 29 31 34 36 34 34 29 28 28 30 29 30 23 16 12 12 14 13 11 12 16 19 22 22 23 23 24 25 28 33 37 46 59 54 46 37 36 31 29 30 28
23 24 24 25 26 27 27 32 31 28 30 31 28 27 18 12 12 12 12 12 12 13 18 21 20 21 22 23 24 28 31 35 41 49 52 50 44 41 35 34 33 26 25
20 18 18 18 18 21 22 23 24 25 29 25 25 20 12 11 11 11 10 11 15 16 18 19 20 25 22 24 29 32 37 36 44 49 45 43 46 42 37 34 34 26 23
16 15 14 15 18 18 18 17 21 26 21 23 20 12 11 10 15 12 13 13 13 15 16 22 25 21 19 25 28 31 31 37 43 42 39 43 43 43 43 33 28 21 25
16 14 13 14 14 13 13 17 22 16 16 19 15 12 12 11 15 12 12 13 13 14 17 24 21 18 20 22 28 32 27 32 35 32 36 40 44 42 35 25 20 18 19
14 11 8 6 7 9 12 14 14 16 16 15 14 13 12 12 12 12 12 12 13 15 20 19 17 17 18 25 28 30 26 30 36 33 30 33 30 26 14 4 7 9 11
12 7 4 4 5 6 8 11 13 15 15 14 13 13 14 12 11 11 11 11 12 17 17 18 16 15 19 22 25 27 28 30 39 36 31 30 22 14 11 6 2 4 8
10 5 2 3 5 8 12 13 13 13 13 13 12 12 12 11 9 9 11 9 12 14 15 14 17 20 19 20 22 23 26 28 34 43 45 35 27 15 13 9 6 7 7
4 4 7 9 10 15 20 16 12 14 13 13 12 11 10 10 7 10 12 10 10 14 14 14 12 18 16 17 19 19 22 24 23 37 45 49 32 25 19 13 7 6 8
9 9 11 14 15 21 19 16 14 14 13 12 11 10 9 10 10 11 12 12 15 16 13 12 14 16 15 15 15 15 17 19 18 28 37 43 46 33 22 20 23 15 7
6 10 14 16 17 20 16 15 13 14 12 12 12 11 10 7 9 11 10 11 13 15 12 14 14 14 12 10 13 13 15 17 19 22 28 33 36 38 38 25 27 28 23
9 7 7 11 19 18 15 14 13 12 14 13 12 9 9 9 6 4 3 7 11 10 11 10 12 13 13 11 12 13 15 16 17 19 20 21 25 31 35 38 37 38 38
5 8 11 14 12 10 14 14 12 15 15 10 9 7 8 8 9 7 3 4 5 9 7 7 8 9 11 12 12 13 14 16 17 18 19 21 20 23 25 27 30 33 37
9 9 3 8 14 14 15 11 13 12 13 14 11 8 10 13 9 5 3 6 8 8 7 7 8 10 11 12 13 14 15 16 17 17 18 17 21 22 22 21 21 23 30
5 5 9 9 9 12 12 10 11 12 12 12 11 11 10 13 8 3 2 6 7 9 6 8 9 10 11 11 12 13 14 17 16 15 16 18 19 20 20 20 19 19 20
1 4 4 6 7 9 10 9 8 10 7 11 11 12 15 12 8 3 5 11 7 8 7 8 9 10 10 11 11 11 13 14 15 16 16 16 17 17 19 20 19 20 18
4 5 7 7 8 9 8 9 8 9 11 11 17 19 17 13 8 6 8 4 4 5 7 8 9 9 9 10 10 11 12 14 14 14 15 15 17 16 17 17 18 20 18
6 8 7 4 4 4 7 8 9 13 13 14 17 17 19 14 10 5 6 5 4 5 6 7 8 8 10 11 11 11 10 11 12 12 13 14 14 15 16 16 17 17 17
4 3 5 4 6 6 7 7 8 10 13 15 15 16 17 14 9 8 5 4 4 5 6 6 6 8 8 9 10 10 11 11 12 13 14 14 14 15 15 13 14 15 14
3 3 4 5 6 6 7 9 11 12 13 16 17 19 18 14 10 7 5 4 4 4 5 6 6 7 8 9 10 9 10 10 10 11 12 12 12 12 13 13 14 13 15
3 4 4 4 6 9 8 9 10 12 16 17 17 19 18 14 11 8 6 4 4 3 5 5 6 6 7 9 9 10 9 9 9 10 10 10 10 10 11 11 12 12 13
4 5 4 5 6 8 9 9 10 13 16 18 18 21 19 15 12 9 6 5 4 4 5 5 6 7 8 8 10 10 11 11 10 8 9 9 9 10 9 9 9 11 11
5 5 6 7 7 7 8 10 13 16 19 19 20 21 18 15 11 9 7 6 5 5 5 5 5 7 9 10 11 11 12 13 12 11 9 9 9 9 9 8 9 9 11
6 6 5 5 6 7 9 12 13 15 17 18 21 19 17 14 10 8 7 7 6 6 6 5 5 6 7 9 10 11 13 13 13 12 10 7 8 8 7 8 9 8 10
Wind_Direction
231 231 233 239 237 238 239 237 246 244 245 244 250 281 286 274 277 260 260 268 278 293 306 311 318 321 319 315 310 308 307 308 306 302 309 307 306 304 300 297 294 279 268
233 232 233 237 236 237 240 241 242 245 244 246 250 278 281 273 255 251 257 256 278 292 302 311 319 320 320 318 312 307 309 314 310 307 309 310 310 309 306 299 287 275 273
225 232 233 234 236 244 240 240 243 243 244 244 257 271 278 265 247 245 271 273 274 287 305 314 319 319 318 317 312 312 314 311 313 309 311 312 311 314 313 310 303 291 281
225 233 234 235 238 240 238 242 240 239 237 234 251 262 262 247 238 255 268 266 275 289 308 317 314 315 313 312 318 318 318 314 316 317 309 311 312 311 307 308 308 302 283
219 228 233 231 227 232 234 237 239 227 231 235 239 252 238 228 239 250 254 264 281 296 309 314 314 312 326 320 323 328 324 321 327 316 315 314 312 309 302 300 291 293 278
210 215 213 214 224 222 232 233 230 230 232 233 239 223 218 227 241 252 255 275 280 292 304 316 319 324 309 318 326 330 328 335 323 323 322 316 322 313 305 294 282 276 271
187 189 197 215 224 228 235 235 227 231 212 219 223 216 219 219 241 245 254 273 280 292 307 316 317 314 320 316 330 334 335 339 340 330 334 335 323 317 310 290 263 264 269
169 178 193 204 222 228 229 225 199 198 207 214 217 212 212 223 237 245 258 278 289 295 312 314 313 315 314 326 333 336 336 347 354 351 347 347 346 329 330 282 261 278 286
159 155 167 191 210 208 214 189 192 200 205 207 203 203 208 219 233 246 267 286 285 299 310 320 313 314 321 327 334 338 349 354 10 3 4 359 350 358 23 37 346 260 287
144 167 177 208 208 190 175 179 191 208 205 190 195 208 213 213 232 258 284 286 287 302 321 316 315 314 322 328 333 344 353 1 7 13 21 13 23 35 31 9 350 314 310
176 230 226 217 213 199 182 176 199 206 195 183 195 205 210 205 252 273 284 289 294 309 315 317 307 309 322 326 330 346 354 5 358 14 20 24 23 34 48 43 351 329 305
168 190 209 204 183 190 182 165 190 189 190 185 193 204 214 233 264 274 283 292 304 320 323 314 309 323 323 321 325 337 346 5 3 6 18 26 26 31 34 52 62 51 15
178 200 199 188 181 188 176 180 175 186 193 199 209 211 215 220 256 271 278 294 313 323 318 321 329 337 337 340 326 339 355 2 6 6 12 16 30 32 44 56 68 61 59
210 185 189 174 189 181 171 183 175 185 198 207 211 214 223 210 205 238 278 316 326 332 326 325 346 358 356 357 358 360 5 11 11 5 2 14 14 37 41 46 49 58 56
193 187 173 185 189 193 172 171 183 188 201 208 209 212 208 224 205 198 218 300 323 328 360 343 351 3 5 7 7 6 9 11 13 8 7 3 13 19 19 34 38 48 53
181 184 163 228 190 191 201 205 204 206 204 207 211 205 220 216 208 198 284 334 354 4 14 8 6 15 10 8 8 9 11 14 15 11 11 11 11 20 21 26 33 31 42
170 227 198 208 205 195 204 202 191 198 214 224 239 230 230 199 175 172 358 14 15 47 21 19 16 17 9 12 11 9 13 12 18 14 14 13 21 22 30 28 34 41 38
311 214 140 162 191 188 170 173 181 206 196 214 207 193 170 169 160 129 60 59 15 27 27 27 19 16 11 13 14 14 12 15 14 18 18 19 22 23 22 28 32 34 40
142 174 170 181 184 178 168 176 192 195 179 167 171 167 165 164 155 117 91 89 57 37 26 21 23 18 14 18 18 17 19 17 18 18 20 21 22 26 28 29 26 33 41
165 171 146 150 167 176 196 199 189 173 171 176 170 169 169 171 161 125 101 83 63 57 35 24 17 20 17 22 22 22 20 19 19 20 22 19 23 25 25 26 28 30 31
139 155 168 178 203 202 200 207 195 188 182 180 173 175 176 170 161 139 132 93 77 57 38 39 25 22 21 17 23 21 19 18 17 15 16 15 17 18 20 29 28 26 33
147 174 203 191 213 211 215 197 195 193 182 177 173 183 175 171 161 139 138 114 89 63 46 40 41 34 27 27 29 30 19 17 17 16 15 14 12 18 19 21 24 27 24
163 179 190 191 197 205 198 188 183 178 173 171 174 172 171 169 154 166 137 136 109 84 58 57 50 38 34 31 32 31 24 19 20 13 13 13 12 22 17 21 25 26 24
169 164 175 189 184 189 190 177 172 171 167 168 174 170 166 168 160 157 160 147 127 99 77 62 56 57 48 45 38 31 26 23 26 21 25 11 13 20 22 25 25 28 28
192 193 204 208 204 200 179 165 162 162 168 169 163 164 160 146 158 168 157 147 140 124 107 89 72 50 42 41 37 33 28 27 25 23 33 13 12 22 24 24 33 27 31
175 182 194 202 208 203 181 166 165 162 163 172 167 162 160 162 172 168 162 157 148 143 121 97 64 53 45 26 27 25 25 24 25 24 40 17 22 20 40 27 32 34 32